Location: Chippewa Lake
(41.0698°N, 81.9010°W)
Time: 02:18:12
(UTC+00:00)

MetOp-B - Pass Details

Date: 09 May 2021
Orbit: 819 x 821 km, 98.7° (Epoch: 24 June)

Event Time Altitude Azimuth Distance (km) Brightness Sun altitude
Exits shadow 02:22:20 27° 163° (SSE) 1,533 5.1 -18.0°
Maximum altitude 02:25:22 87° 76° (ENE) 828 4.1 -18.4°
Drops below altitude 10° 02:30:45 10° 347° (NNW) 2,426 7.4 -19.1°
Sets 02:33:06 0° 347° (NNW) 3,362 8.3 -19.4°
